Location: Gwatt
(46.7204°N, 7.6223°E)
Time: 01:12:57
(UTC+00:00)

Vanguard 3 - Pass Details

Date: 24 January 2021
Orbit: 508 x 3262 km, 33.4° (Epoch: 03 March)

Event Time Altitude Azimuth Distance (km) Brightness Sun altitude
Exits shadow 04:15:08 27° 205° (SSW) 2,354 9.2 -28.5°
Maximum altitude 04:18:31 36° 165° (SSE) 2,336 9.5 -27.9°
Drops below altitude 10° 04:29:48 10° 107° (ESE) 4,967 12.1 -26.0°
Sets 04:35:02 0° 100° (E) 6,407 13.1 -25.1°
